SCP
-0 -0 -0 -0 -0 -0 -0 -0 -0 0 0 0 -0 -0 -0 -0 -0 0 -0 0 0 0 0 0 0 0 0 1 0 0 0 0 0 0 0 0 0 0 0 0 0 0 0
-0 -0 -0 -0 -0 -0 -0 -0 0 0 0 0 0 -0 -0 0 -0 -0 -0 -0 -0 0 0 0 0 0 0 1 1 0 0 0 1 0 0 0 -0 0 0 0 0 0 0
-0 -0 -0 -0 -0 -0 -0 -0 0 1 0 0 0 0 -0 -0 -0 -0 -0 -0 -0 -0 0 0 0 0 0 0 2 1 0 0 0 1 0 0 0 0 0 -0 0 0 0
-0 -0 -0 -0 -0 -0 -0 -0 0 0 1 0 0 0 0 0 0 0 0 0 0 -0 -0 0 0 0 0 0 0 1 1 1 0 0 0 0 0 0 0 0 0 0 0
-0 0 -0 -0 -0 0 -0 -0 0 0 0 0 0 0 0 0 0 0 0 0 0 0 0 0 0 0 0 0 0 0 1 1 1 0 0 1 1 0 0 0 1 0 0
0 0 0 0 -0 0 0 0 0 1 1 1 0 -0 -0 -0 0 0 0 0 0 1 1 0 1 1 0 0 0 1 1 1 1 0 0 0 0 0 1 0 0 0 0
0 0 0 0 0 0 0 0 0 1 0 1 1 0 0 -0 0 1 0 0 0 0 0 1 1 0 1 0 1 1 1 1 1 1 1 0 0 0 0 0 0 0 0
0 0 0 0 0 0 0 0 0 0 0 0 1 1 0 0 0 0 0 0 0 0 0 1 1 1 1 1 1 1 1 1 2 1 1 1 1 1 0 1 1 1 0
0 0 0 0 1 0 0 0 0 0 0 0 -1 1 0 0 0 1 0 0 0 0 1 2 3 2 1 1 2 2 2 1 2 2 1 1 1 1 1 1 1 0 1
0 0 0 0 0 0 1 1 1 1 0 0 1 0 1 1 2 4 1 0 1 2 0 2 4 4 2 3 5 3 3 4 2 2 3 3 2 2 2 1 2 1 2
0 0 0 0 0 0 0 0 0 1 1 1 0 0 0 1 2 2 2 2 2 2 4 3 4 5 4 5 6 3 4 2 2 1 2 3 3 2 3 3 4 3 2
1 1 1 0 1 0 1 1 1 2 3 2 1 1 0 2 0 1 1 2 3 3 4 5 4 6 7 8 5 2 3 3 2 1 3 3 2 2 3 3 3 2 2
1 1 1 1 2 2 1 1 0 1 1 2 2 2 2 2 3 3 4 3 3 3 3 2 4 8 9 5 4 3 3 3 3 1 3 1 0 1 2 1 2 1 1
2 2 1 1 2 2 1 1 1 1 1 2 2 3 3 3 2 2 3 2 3 3 3 3 5 8 5 4 3 2 3 3 2 1 1 0 0 0 1 1 1 0 0
2 1 1 1 0 0 0 0 0 1 1 1 1 2 2 2 2 2 3 3 3 3 3 4 3 3 4 3 2 3 4 3 1 1 0 0 0 0 0 0 0 0 0
1 1 0 0 0 0 0 0 0 0 0 0 1 1 1 2 2 3 4 4 2 3 4 4 3 2 3 1 1 2 2 2 1 1 0 0 0 0 0 0 0 0 0
1 0 0 0 0 0 0 0 0 0 0 0 0 1 1 1 1 2 2 3 2 2 3 4 4 4 3 0 0 1 2 1 0 0 0 0 0 0 0 0 0 0 0
0 0 0 0 0 0 0 0 0 0 0 0 0 0 1 1 2 2 2 3 3 4 6 5 4 4 3 0 0 0 0 0 0 0 0 0 0 0 0 0 0 0 0
0 0 0 0 0 0 0 0 0 0 0 0 0 0 0 1 2 2 2 3 5 5 5 4 5 5 1 0 0 0 1 1 0 0 0 0 0 0 0 0 0 0 0
0 0 0 0 0 0 0 0 0 0 0 0 0 0 0 0 0 1 2 3 4 3 3 3 3 3 1 0 0 0 1 0 0 0 0 0 0 0 0 0 0 0 0
0 0 0 0 0 0 0 0 0 0 0 0 0 0 0 0 0 1 2 3 3 2 3 3 3 2 1 0 0 0 0 0 0 0 0 0 0 0 0 0 0 0 0
0 0 0 0 0 0 0 0 0 0 0 0 0 0 0 0 0 0 1 1 2 1 2 2 1 0 0 0 0 0 0 0 0 0 0 0 0 0 0 0 0 0 0
0 0 0 0 0 0 0 0 0 0 0 0 0 0 0 0 0 0 0 0 1 0 0 0 0 0 0 0 0 0 0 0 0 0 0 0 0 0 0 0 0 0 0
0 0 0 0 0 0 0 0 0 0 0 0 0 0 0 0 0 0 0 0 0 0 0 0 0 0 0 0 0 0 0 0 0 0 0 0 0 0 0 0 0 0 0
0 0 0 0 0 0 0 0 0 0 0 0 0 0 0 0 0 0 0 0 0 0 0 0 0 0 0 0 0 0 0 0 0 0 0 0 0 0 0 0 0 0 0
0 0 0 0 0 0 0 0 0 0 -0 0 0 0 0 0 0 0 0 0 0 0 0 0 0 0 0 0 0 0 0 0 0 0 0 0 0 0 0 0 0 0 0
Wind_Speed_500mb
43 46 50 51 52 52 54 51 48 48 43 38 33 33 32 30 31 31 32 33 31 30 30 26 27 27 26 29 25 28 30 17 21 32 22 33 33 35 32 32 20 24 27
46 49 52 56 56 57 58 59 56 52 48 39 36 32 30 29 29 30 33 38 37 34 33 34 31 29 29 21 28 21 21 20 20 27 25 36 34 39 19 25 21 20 20
48 53 56 58 57 59 61 62 64 57 57 51 40 35 34 33 33 36 36 36 37 36 37 38 38 36 33 30 29 20 21 18 18 21 17 19 23 32 37 29 19 17 17
42 51 56 59 61 60 57 62 64 67 63 62 49 47 44 43 39 38 34 34 40 40 38 40 41 41 35 36 32 23 26 20 22 18 24 27 25 26 16 16 12 7 16
21 46 58 60 59 58 59 58 63 66 65 66 63 57 55 49 44 41 41 43 41 41 40 40 42 42 39 37 44 43 27 30 27 22 21 23 20 23 22 29 19 14 24
9 24 42 56 59 60 58 56 61 69 69 69 69 71 66 60 48 45 42 40 40 39 44 40 43 44 41 42 44 40 44 36 35 29 26 23 25 25 32 30 23 33 26
12 5 24 43 53 55 58 55 57 63 57 63 71 70 72 73 66 57 47 46 42 42 39 48 43 40 45 39 40 41 42 35 32 27 28 28 30 33 47 42 30 28 37
21 16 12 22 35 45 49 53 52 54 50 62 67 71 69 65 57 53 49 44 46 46 43 41 40 43 43 40 33 39 39 33 34 30 30 31 34 33 40 45 35 38 41
26 24 18 13 14 25 34 43 46 43 45 50 52 45 48 50 43 37 42 42 51 45 48 50 52 50 45 45 45 39 36 29 30 35 30 36 36 37 41 45 60 56 37
33 31 28 22 17 15 19 25 31 35 33 37 42 34 36 43 55 62 65 55 47 50 59 45 65 62 46 47 44 39 36 32 38 39 35 46 46 55 61 58 54 50 45
23 21 22 25 28 25 21 18 17 19 22 27 31 26 17 35 55 57 56 51 56 63 62 64 56 61 54 50 50 45 42 45 37 41 46 50 53 56 63 64 65 61 58
22 22 23 21 23 18 14 6 5 6 5 21 27 37 47 51 42 48 48 40 45 51 61 61 57 56 50 57 58 39 32 37 34 41 42 42 43 53 55 62 65 60 49
20 19 20 19 18 17 16 13 10 4 3 2 10 20 23 30 38 45 46 43 45 49 51 55 57 60 64 57 56 51 50 42 39 42 43 38 40 50 49 53 57 55 48
17 18 16 16 16 14 13 10 6 5 7 6 8 13 16 23 31 38 42 39 43 48 51 55 55 59 54 48 50 54 47 42 46 34 23 23 35 28 29 26 31 38 36
19 17 15 14 13 11 11 11 9 12 14 15 15 20 27 33 38 37 41 40 42 44 48 53 62 60 49 49 56 47 37 37 36 25 12 15 13 14 18 22 24 38 30
17 15 13 10 9 9 10 12 16 19 21 23 25 28 34 36 40 42 42 46 43 45 46 50 46 43 51 50 49 47 32 25 21 14 11 3 5 5 9 13 9 7 16
15 11 9 8 7 11 16 20 29 30 31 32 33 32 34 39 39 42 39 46 45 41 45 51 52 51 50 50 44 36 25 16 20 19 15 12 4 4 5 9 5 19 20
9 6 6 9 12 18 22 28 31 34 36 37 38 38 36 40 44 44 45 39 43 39 43 49 48 37 45 40 32 28 31 31 23 22 18 22 9 10 17 14 13 13 9
5 5 9 14 17 21 26 32 36 39 42 46 46 46 48 48 48 49 49 47 39 48 49 41 38 38 41 31 31 33 34 30 28 27 22 16 18 22 25 21 21 15 8
3 10 14 15 17 23 28 35 40 44 47 50 55 57 57 57 57 53 52 50 47 48 44 40 38 33 38 29 33 34 32 38 36 32 30 24 20 25 26 17 16 17 14
6 13 15 16 19 23 30 34 40 41 50 55 55 55 56 61 61 61 54 57 52 44 45 38 36 35 38 30 34 38 32 30 28 26 25 24 22 20 21 21 18 21 8
7 11 13 16 21 26 32 41 46 51 54 50 55 58 63 50 47 50 56 54 54 52 58 44 39 37 40 31 39 47 36 29 29 26 30 19 21 19 18 16 20 24 26
6 7 8 13 20 29 36 45 47 50 45 43 43 43 34 30 35 38 44 43 43 47 44 45 46 47 41 50 52 51 39 39 35 32 27 23 23 25 26 25 31 23 12
2 2 7 14 23 29 31 37 47 52 46 44 41 40 38 32 27 23 28 34 34 43 42 47 48 48 50 46 51 40 42 36 27 30 34 34 34 25 22 20 17 13 12
3 6 8 9 16 21 26 32 40 47 50 39 35 39 29 27 27 15 13 16 19 26 34 45 52 59 58 53 43 31 31 27 24 30 31 32 18 21 17 15 10 10 9
2 4 3 3 7 15 24 29 34 33 33 36 33 39 44 45 48 34 24 16 6 19 39 45 47 53 46 44 36 31 25 24 27 19 12 17 15 16 16 12 7 6 9
Wind_Direction_500mb
193 193 195 196 198 202 203 204 202 207 201 204 213 216 223 227 230 233 234 233 239 240 244 240 247 250 252 254 267 302 281 304 300 279 288 291 265 242 246 243 240 252 250
195 196 198 198 200 202 204 205 203 204 208 208 212 217 223 228 234 237 238 244 236 238 242 246 243 248 255 269 277 283 270 280 288 294 285 298 295 247 217 233 222 233 241
201 200 202 202 202 205 205 208 209 208 211 204 213 217 223 231 233 239 240 244 243 238 241 241 244 241 244 251 273 248 260 267 280 271 277 296 290 319 314 218 203 215 244
208 207 208 207 206 208 208 207 212 208 215 216 207 219 221 227 235 240 246 246 246 243 239 238 246 249 247 248 247 258 255 245 263 270 267 278 285 314 306 299 206 218 244
231 216 211 211 212 211 210 210 213 213 208 218 216 216 228 231 236 239 244 246 244 247 241 238 240 244 249 249 239 239 243 248 254 254 268 267 280 290 285 305 308 281 268
261 240 224 209 209 212 212 211 215 218 216 217 225 227 227 236 231 237 243 247 249 249 248 245 240 240 243 246 232 236 247 253 251 244 250 265 269 279 263 247 270 272 264
15 255 215 207 205 210 211 211 213 222 213 219 228 233 236 239 243 246 241 243 249 249 249 254 252 242 251 239 230 242 249 251 250 255 253 253 261 268 266 277 265 277 274
50 63 129 191 205 208 210 212 212 214 215 220 226 233 241 242 243 247 247 251 249 247 245 242 235 245 227 245 241 237 244 246 246 248 254 253 251 258 268 280 280 265 268
74 78 94 129 174 201 209 213 214 216 220 227 234 237 244 249 242 246 254 258 244 242 248 241 237 239 234 223 224 236 247 246 252 257 265 264 258 258 259 264 263 239 254
95 87 85 93 111 146 178 196 209 218 231 240 240 234 246 257 265 266 263 247 240 254 237 246 237 242 231 225 224 230 241 235 260 262 252 262 270 273 259 254 255 262 260
103 94 95 93 92 100 115 136 168 194 212 222 231 235 220 244 256 263 259 253 247 237 241 240 237 242 232 220 224 223 221 246 256 264 270 275 276 269 266 250 245 243 246
110 106 92 98 94 91 98 95 123 145 203 234 222 229 264 264 264 262 264 256 249 246 245 240 234 234 224 218 235 234 227 237 272 280 273 276 273 267 260 256 243 245 236
123 110 103 94 90 84 82 77 69 65 14 325 273 286 290 276 265 262 256 253 252 247 243 242 236 226 224 231 232 234 238 258 288 285 282 276 286 271 259 255 244 235 240
133 120 109 92 81 74 74 69 58 31 357 342 308 290 281 272 273 275 269 260 255 247 244 237 233 229 237 227 229 235 245 272 285 284 269 289 299 288 253 236 226 233 237
138 123 107 89 72 55 38 20 3 347 335 322 304 293 288 289 285 268 265 261 253 251 241 234 234 240 233 232 235 243 259 264 263 258 270 287 308 275 205 216 204 197 186
144 127 104 83 55 22 3 349 334 330 322 310 300 297 292 279 278 277 269 266 257 243 232 241 241 236 227 245 244 246 254 226 233 232 237 154 47 41 208 216 207 219 225
157 132 97 59 18 353 334 326 323 316 312 306 302 294 287 287 281 271 265 260 250 242 235 234 234 229 236 234 242 216 207 213 218 213 190 167 105 54 69 87 179 201 217
156 105 50 13 341 332 322 319 316 316 311 308 306 299 288 278 278 275 268 257 261 252 241 237 230 219 216 224 205 200 191 201 202 192 189 179 174 150 117 113 110 114 145
141 46 8 347 337 330 328 327 325 321 319 311 305 297 292 281 270 277 274 267 254 252 242 231 215 204 224 217 218 205 198 197 175 180 182 178 175 160 140 133 126 120 116
62 8 351 344 333 336 337 331 329 322 317 311 303 294 284 281 277 262 270 268 261 250 240 221 217 220 236 232 207 198 191 203 208 198 188 187 170 163 164 143 141 136 139
21 5 347 346 341 339 339 335 331 328 320 314 304 301 286 273 272 274 254 258 252 258 227 223 224 217 229 220 213 197 202 186 174 172 180 185 178 175 171 164 153 172 163
3 357 349 344 346 346 349 345 342 332 330 337 328 308 301 276 271 262 262 255 255 255 234 228 225 239 239 218 190 176 179 175 169 162 190 184 177 166 159 160 139 130 123
335 342 358 356 351 360 359 358 355 351 350 337 342 342 327 308 289 269 262 259 245 234 234 236 199 186 192 183 177 175 180 168 165 171 185 163 142 134 127 125 124 106 114
211 334 14 17 5 4 3 10 11 7 3 0 3 10 3 353 342 312 265 245 236 244 234 217 186 183 176 169 167 174 172 170 178 161 140 132 123 133 116 110 105 124 131
128 51 35 20 13 6 10 14 16 8 17 13 27 37 29 23 17 24 296 302 262 245 222 197 175 166 153 147 133 136 148 134 143 136 130 113 125 115 116 124 115 109 90
214 176 160 70 24 15 25 21 18 18 23 22 42 49 47 61 65 77 90 84 138 177 172 149 152 143 139 130 118 116 129 133 124 114 136 133 160 153 141 129 112 117 92
Wind_Speed_850mb
43 46 50 51 52 52 54 51 48 48 43 38 33 33 32 30 31 31 32 33 31 30 30 26 27 27 26 29 25 28 30 17 21 32 22 33 33 35 32 32 20 24 27
46 49 52 56 56 57 58 59 56 52 48 39 36 32 30 29 29 30 33 38 37 34 33 34 31 29 29 21 28 21 21 20 20 27 25 36 34 39 19 25 21 20 20
48 53 56 58 57 59 61 62 64 57 57 51 40 35 34 33 33 36 36 36 37 36 37 38 38 36 33 30 29 20 21 18 18 21 17 19 23 32 37 29 19 17 17
42 51 56 59 61 60 57 62 64 67 63 62 49 47 44 43 39 38 34 34 40 40 38 40 41 41 35 36 32 23 26 20 22 18 24 27 25 26 16 16 12 7 16
21 46 58 60 59 58 59 58 63 66 65 66 63 57 55 49 44 41 41 43 41 41 40 40 42 42 39 37 44 43 27 30 27 22 21 23 20 23 22 29 19 14 24
9 24 42 56 59 60 58 56 61 69 69 69 69 71 66 60 48 45 42 40 40 39 44 40 43 44 41 42 44 40 44 36 35 29 26 23 25 25 32 30 23 33 26
12 5 24 43 53 55 58 55 57 63 57 63 71 70 72 73 66 57 47 46 42 42 39 48 43 40 45 39 40 41 42 35 32 27 28 28 30 33 47 42 30 28 37
21 16 12 22 35 45 49 53 52 54 50 62 67 71 69 65 57 53 49 44 46 46 43 41 40 43 43 40 33 39 39 33 34 30 30 31 34 33 40 45 35 38 41
26 24 18 13 14 25 34 43 46 43 45 50 52 45 48 50 43 37 42 42 51 45 48 50 52 50 45 45 45 39 36 29 30 35 30 36 36 37 41 45 60 56 37
33 31 28 22 17 15 19 25 31 35 33 37 42 34 36 43 55 62 65 55 47 50 59 45 65 62 46 47 44 39 36 32 38 39 35 46 46 55 61 58 54 50 45
23 21 22 25 28 25 21 18 17 19 22 27 31 26 17 35 55 57 56 51 56 63 62 64 56 61 54 50 50 45 42 45 37 41 46 50 53 56 63 64 65 61 58
22 22 23 21 23 18 14 6 5 6 5 21 27 37 47 51 42 48 48 40 45 51 61 61 57 56 50 57 58 39 32 37 34 41 42 42 43 53 55 62 65 60 49
20 19 20 19 18 17 16 13 10 4 3 2 10 20 23 30 38 45 46 43 45 49 51 55 57 60 64 57 56 51 50 42 39 42 43 38 40 50 49 53 57 55 48
17 18 16 16 16 14 13 10 6 5 7 6 8 13 16 23 31 38 42 39 43 48 51 55 55 59 54 48 50 54 47 42 46 34 23 23 35 28 29 26 31 38 36
19 17 15 14 13 11 11 11 9 12 14 15 15 20 27 33 38 37 41 40 42 44 48 53 62 60 49 49 56 47 37 37 36 25 12 15 13 14 18 22 24 38 30
17 15 13 10 9 9 10 12 16 19 21 23 25 28 34 36 40 42 42 46 43 45 46 50 46 43 51 50 49 47 32 25 21 14 11 3 5 5 9 13 9 7 16
15 11 9 8 7 11 16 20 29 30 31 32 33 32 34 39 39 42 39 46 45 41 45 51 52 51 50 50 44 36 25 16 20 19 15 12 4 4 5 9 5 19 20
9 6 6 9 12 18 22 28 31 34 36 37 38 38 36 40 44 44 45 39 43 39 43 49 48 37 45 40 32 28 31 31 23 22 18 22 9 10 17 14 13 13 9
5 5 9 14 17 21 26 32 36 39 42 46 46 46 48 48 48 49 49 47 39 48 49 41 38 38 41 31 31 33 34 30 28 27 22 16 18 22 25 21 21 15 8
3 10 14 15 17 23 28 35 40 44 47 50 55 57 57 57 57 53 52 50 47 48 44 40 38 33 38 29 33 34 32 38 36 32 30 24 20 25 26 17 16 17 14
6 13 15 16 19 23 30 34 40 41 50 55 55 55 56 61 61 61 54 57 52 44 45 38 36 35 38 30 34 38 32 30 28 26 25 24 22 20 21 21 18 21 8
7 11 13 16 21 26 32 41 46 51 54 50 55 58 63 50 47 50 56 54 54 52 58 44 39 37 40 31 39 47 36 29 29 26 30 19 21 19 18 16 20 24 26
6 7 8 13 20 29 36 45 47 50 45 43 43 43 34 30 35 38 44 43 43 47 44 45 46 47 41 50 52 51 39 39 35 32 27 23 23 25 26 25 31 23 12
2 2 7 14 23 29 31 37 47 52 46 44 41 40 38 32 27 23 28 34 34 43 42 47 48 48 50 46 51 40 42 36 27 30 34 34 34 25 22 20 17 13 12
3 6 8 9 16 21 26 32 40 47 50 39 35 39 29 27 27 15 13 16 19 26 34 45 52 59 58 53 43 31 31 27 24 30 31 32 18 21 17 15 10 10 9
2 4 3 3 7 15 24 29 34 33 33 36 33 39 44 45 48 34 24 16 6 19 39 45 47 53 46 44 36 31 25 24 27 19 12 17 15 16 16 12 7 6 9
Wind_Direction_850mb
193 193 195 196 198 202 203 204 202 207 201 204 213 216 223 227 230 233 234 233 239 240 244 240 247 250 252 254 267 302 281 304 300 279 288 291 265 242 246 243 240 252 250
195 196 198 198 200 202 204 205 203 204 208 208 212 217 223 228 234 237 238 244 236 238 242 246 243 248 255 269 277 283 270 280 288 294 285 298 295 247 217 233 222 233 241
201 200 202 202 202 205 205 208 209 208 211 204 213 217 223 231 233 239 240 244 243 238 241 241 244 241 244 251 273 248 260 267 280 271 277 296 290 319 314 218 203 215 244
208 207 208 207 206 208 208 207 212 208 215 216 207 219 221 227 235 240 246 246 246 243 239 238 246 249 247 248 247 258 255 245 263 270 267 278 285 314 306 299 206 218 244
231 216 211 211 212 211 210 210 213 213 208 218 216 216 228 231 236 239 244 246 244 247 241 238 240 244 249 249 239 239 243 248 254 254 268 267 280 290 285 305 308 281 268
261 240 224 209 209 212 212 211 215 218 216 217 225 227 227 236 231 237 243 247 249 249 248 245 240 240 243 246 232 236 247 253 251 244 250 265 269 279 263 247 270 272 264
15 255 215 207 205 210 211 211 213 222 213 219 228 233 236 239 243 246 241 243 249 249 249 254 252 242 251 239 230 242 249 251 250 255 253 253 261 268 266 277 265 277 274
50 63 129 191 205 208 210 212 212 214 215 220 226 233 241 242 243 247 247 251 249 247 245 242 235 245 227 245 241 237 244 246 246 248 254 253 251 258 268 280 280 265 268
74 78 94 129 174 201 209 213 214 216 220 227 234 237 244 249 242 246 254 258 244 242 248 241 237 239 234 223 224 236 247 246 252 257 265 264 258 258 259 264 263 239 254
95 87 85 93 111 146 178 196 209 218 231 240 240 234 246 257 265 266 263 247 240 254 237 246 237 242 231 225 224 230 241 235 260 262 252 262 270 273 259 254 255 262 260
103 94 95 93 92 100 115 136 168 194 212 222 231 235 220 244 256 263 259 253 247 237 241 240 237 242 232 220 224 223 221 246 256 264 270 275 276 269 266 250 245 243 246
110 106 92 98 94 91 98 95 123 145 203 234 222 229 264 264 264 262 264 256 249 246 245 240 234 234 224 218 235 234 227 237 272 280 273 276 273 267 260 256 243 245 236
123 110 103 94 90 84 82 77 69 65 14 325 273 286 290 276 265 262 256 253 252 247 243 242 236 226 224 231 232 234 238 258 288 285 282 276 286 271 259 255 244 235 240
133 120 109 92 81 74 74 69 58 31 357 342 308 290 281 272 273 275 269 260 255 247 244 237 233 229 237 227 229 235 245 272 285 284 269 289 299 288 253 236 226 233 237
138 123 107 89 72 55 38 20 3 347 335 322 304 293 288 289 285 268 265 261 253 251 241 234 234 240 233 232 235 243 259 264 263 258 270 287 308 275 205 216 204 197 186
144 127 104 83 55 22 3 349 334 330 322 310 300 297 292 279 278 277 269 266 257 243 232 241 241 236 227 245 244 246 254 226 233 232 237 154 47 41 208 216 207 219 225
157 132 97 59 18 353 334 326 323 316 312 306 302 294 287 287 281 271 265 260 250 242 235 234 234 229 236 234 242 216 207 213 218 213 190 167 105 54 69 87 179 201 217
156 105 50 13 341 332 322 319 316 316 311 308 306 299 288 278 278 275 268 257 261 252 241 237 230 219 216 224 205 200 191 201 202 192 189 179 174 150 117 113 110 114 145
141 46 8 347 337 330 328 327 325 321 319 311 305 297 292 281 270 277 274 267 254 252 242 231 215 204 224 217 218 205 198 197 175 180 182 178 175 160 140 133 126 120 116
62 8 351 344 333 336 337 331 329 322 317 311 303 294 284 281 277 262 270 268 261 250 240 221 217 220 236 232 207 198 191 203 208 198 188 187 170 163 164 143 141 136 139
21 5 347 346 341 339 339 335 331 328 320 314 304 301 286 273 272 274 254 258 252 258 227 223 224 217 229 220 213 197 202 186 174 172 180 185 178 175 171 164 153 172 163
3 357 349 344 346 346 349 345 342 332 330 337 328 308 301 276 271 262 262 255 255 255 234 228 225 239 239 218 190 176 179 175 169 162 190 184 177 166 159 160 139 130 123
335 342 358 356 351 360 359 358 355 351 350 337 342 342 327 308 289 269 262 259 245 234 234 236 199 186 192 183 177 175 180 168 165 171 185 163 142 134 127 125 124 106 114
211 334 14 17 5 4 3 10 11 7 3 0 3 10 3 353 342 312 265 245 236 244 234 217 186 183 176 169 167 174 172 170 178 161 140 132 123 133 116 110 105 124 131
128 51 35 20 13 6 10 14 16 8 17 13 27 37 29 23 17 24 296 302 262 245 222 197 175 166 153 147 133 136 148 134 143 136 130 113 125 115 116 124 115 109 90
214 176 160 70 24 15 25 21 18 18 23 22 42 49 47 61 65 77 90 84 138 177 172 149 152 143 139 130 118 116 129 133 124 114 136 133 160 153 141 129 112 117 92